Location: M?digepalle
(16.1753°N, 80.3496°E)
Time: 08:56:29
(UTC+00:00)

USA 281 - Pass Details

Date: 29 October 2020
Orbit: 1079 x 1080 km, 106.0° (Epoch: 23 November)

Event Time Altitude Azimuth Distance (km) Brightness Sun altitude
Rises 13:00:33 0° 165° (SSE) 3,864 6.1 -12.8°
Reaches altitude 10° 13:03:03 10° 167° (SSE) 2,909 5.5 -13.4°
Maximum altitude 13:09:34 71° 250° (WSW) 1,131 3.5 -14.9°
Drops below altitude 10° 13:16:05 10° 334° (NNW) 2,912 5.7 -16.4°
Sets 13:18:37 0° 337° (NNW) 3,869 6.3 -17.0°
